Time,TemperatureF,DewpointF,PressureIn,WindDirection,WindDirectionDegrees,WindSpeedMPH,WindSpeedGustMPH,Humidity,HourlyPrecipIn,Conditions,Clouds,dailyrainin,SolarRadiationWatts/m^2,SoftwareType,DateUTC
2013-11-04 00:01:00,21.0,19.0,-100.00,SW,217,0.0,0.0,90,0.00,,,0.00,0.000000,,2013-11-04 05:01:00,
2013-11-04 00:44:00,21.0,19.0,-100.00,SW,217,0.0,0.0,90,0.00,,,0.00,0.000000,,2013-11-04 05:44:00,
2013-11-04 00:53:00,21.0,19.0,-100.00,SW,217,0.0,0.0,90,0.00,,,0.00,0.000000,,2013-11-04 05:53:00,
2013-11-04 01:01:00,20.0,18.0,-100.00,SW,217,0.0,0.0,90,0.00,,,0.00,0.000000,,2013-11-04 06:01:00,
2013-11-04 01:42:00,20.0,18.0,-100.00,SW,217,0.0,0.0,90,0.00,,,0.00,0.000000,,2013-11-04 06:42:00,
2013-11-04 01:52:00,20.0,18.0,-100.00,SW,217,0.0,0.0,90,0.00,,,0.00,0.000000,,2013-11-04 06:52:00,
2013-11-04 02:01:00,20.0,18.0,-100.00,SW,217,0.0,0.0,91,0.00,,,0.00,0.000000,,2013-11-04 07:01:00,
2013-11-04 02:22:00,20.0,18.0,-100.00,SW,217,0.0,0.0,91,0.00,,,0.00,0.000000,,2013-11-04 07:22:00,
2013-11-04 02:32:00,20.0,18.0,-100.00,SW,217,0.0,0.0,91,0.00,,,0.00,0.000000,,2013-11-04 07:32:00,
2013-11-04 02:43:00,20.0,18.0,-100.00,SW,217,0.0,0.0,91,0.00,,,0.00,0.000000,,2013-11-04 07:43:00,
2013-11-04 02:52:00,20.0,18.0,-100.00,SW,217,0.0,0.0,91,0.00,,,0.00,0.000000,,2013-11-04 07:52:00,
2013-11-04 03:01:00,19.0,16.0,-100.00,SW,217,0.0,0.0,89,0.00,,,0.00,0.000000,,2013-11-04 08:01:00,
2013-11-04 03:21:00,19.0,16.0,-100.00,SW,217,0.0,0.0,89,0.00,,,0.00,0.000000,,2013-11-04 08:21:00,
2013-11-04 03:32:00,19.0,16.0,-100.00,SW,217,0.0,0.0,89,0.00,,,0.00,0.000000,,2013-11-04 08:32:00,
2013-11-04 03:42:00,19.0,16.0,-100.00,SW,217,0.0,0.0,89,0.00,,,0.00,0.000000,,2013-11-04 08:42:00,
2013-11-04 03:52:00,19.0,16.0,-100.00,SW,217,0.0,0.0,89,0.00,,,0.00,0.000000,,2013-11-04 08:52:00,
2013-11-04 04:01:00,18.0,15.0,-100.00,SW,217,0.0,0.0,89,0.00,,,0.00,0.000000,,2013-11-04 09:01:00,
2013-11-04 04:22:00,18.0,15.0,-100.00,SW,217,0.0,0.0,89,0.00,,,0.00,0.000000,,2013-11-04 09:22:00,
2013-11-04 04:33:00,18.0,15.0,-100.00,SW,217,0.0,0.0,89,0.00,,,0.00,0.000000,,2013-11-04 09:33:00,
2013-11-04 04:43:00,18.0,15.0,-100.00,SW,217,0.0,0.0,89,0.00,,,0.00,0.000000,,2013-11-04 09:43:00,
2013-11-04 04:53:00,18.0,15.0,-100.00,SW,217,0.0,0.0,89,0.00,,,0.00,0.000000,,2013-11-04 09:53:00,
2013-11-04 05:01:00,18.0,15.0,-100.00,SW,217,0.0,0.0,89,0.00,,,0.00,0.000000,,2013-11-04 10:01:00,
2013-11-04 05:42:00,18.0,15.0,-100.00,SW,217,0.0,0.0,89,0.00,,,0.00,0.000000,,2013-11-04 10:42:00,
2013-11-04 05:52:00,18.0,15.0,-100.00,SW,217,0.0,0.0,89,0.00,,,0.00,0.000000,,2013-11-04 10:52:00,
2013-11-04 06:01:00,17.0,14.0,-100.00,SW,217,0.0,0.0,89,0.00,,,0.00,0.000000,,2013-11-04 11:01:00,
2013-11-04 06:43:00,17.0,14.0,-100.00,SW,217,0.0,0.0,89,0.00,,,0.00,0.000000,,2013-11-04 11:43:00,
2013-11-04 06:52:00,17.0,14.0,-100.00,SW,217,0.0,0.0,89,0.00,,,0.00,0.000000,,2013-11-04 11:52:00,
2013-11-04 07:01:00,17.0,14.0,-100.00,SW,217,0.0,0.0,89,0.00,,,0.00,2.000000,,2013-11-04 12:01:00,
2013-11-04 07:42:00,17.0,14.0,-100.00,SW,217,0.0,0.0,89,0.00,,,0.00,2.000000,,2013-11-04 12:42:00,
2013-11-04 07:52:00,17.0,14.0,-100.00,SW,217,0.0,0.0,89,0.00,,,0.00,2.000000,,2013-11-04 12:52:00,
2013-11-04 08:01:00,22.0,19.0,-100.00,SW,217,0.0,0.0,89,0.00,,,0.00,38.000000,,2013-11-04 13:01:00,
2013-11-04 08:42:00,22.0,19.0,-100.00,SW,217,0.0,0.0,89,0.00,,,0.00,38.000000,,2013-11-04 13:42:00,
2013-11-04 08:52:00,22.0,19.0,-100.00,SW,217,0.0,0.0,89,0.00,,,0.00,38.000000,,2013-11-04 13:52:00,
2013-11-04 09:01:00,33.0,27.0,-100.00,ESE,113,0.0,2.0,78,0.00,,,0.00,222.000000,,2013-11-04 14:01:00,
2013-11-04 09:42:00,33.0,27.0,-100.00,ESE,113,0.0,2.0,78,0.00,,,0.00,222.000000,,2013-11-04 14:42:00,
2013-11-04 09:52:00,33.0,27.0,-100.00,ESE,113,0.0,2.0,78,0.00,,,0.00,222.000000,,2013-11-04 14:52:00,
2013-11-04 10:01:00,37.0,18.0,-100.00,ENE,60,1.0,6.0,46,0.00,,,0.00,378.000000,,2013-11-04 15:01:00,
2013-11-04 10:22:00,37.0,18.0,-100.00,ENE,60,1.0,6.0,46,0.00,,,0.00,378.000000,,2013-11-04 15:22:00,
2013-11-04 10:32:00,37.0,18.0,-100.00,ENE,60,1.0,6.0,46,0.00,,,0.00,378.000000,,2013-11-04 15:32:00,
2013-11-04 10:42:00,37.0,18.0,-100.00,ENE,60,1.0,6.0,46,0.00,,,0.00,378.000000,,2013-11-04 15:42:00,
2013-11-04 10:52:00,37.0,18.0,-100.00,ENE,60,1.0,6.0,46,0.00,,,0.00,378.000000,,2013-11-04 15:52:00,
2013-11-04 11:01:00,39.0,15.0,-100.00,ENE,67,3.0,10.0,37,0.00,,,0.00,474.000000,,2013-11-04 16:01:00,
2013-11-04 11:23:00,39.0,15.0,-100.00,ENE,67,3.0,10.0,37,0.00,,,0.00,474.000000,,2013-11-04 16:23:00,
2013-11-04 11:33:00,39.0,15.0,-100.00,ENE,67,3.0,10.0,37,0.00,,,0.00,474.000000,,2013-11-04 16:33:00,
2013-11-04 11:43:00,39.0,15.0,-100.00,ENE,67,3.0,10.0,37,0.00,,,0.00,474.000000,,2013-11-04 16:43:00,
2013-11-04 11:53:00,39.0,15.0,-100.00,ENE,67,3.0,10.0,37,0.00,,,0.00,474.000000,,2013-11-04 16:53:00,
2013-11-04 12:01:00,41.0,15.0,-100.00,NE,52,2.0,9.0,34,0.00,,,0.00,499.000000,,2013-11-04 17:01:00,
2013-11-04 12:22:00,41.0,15.0,-100.00,NE,52,2.0,9.0,34,0.00,,,0.00,499.000000,,2013-11-04 17:22:00,
2013-11-04 12:33:00,41.0,15.0,-100.00,NE,52,2.0,9.0,34,0.00,,,0.00,499.000000,,2013-11-04 17:33:00,
2013-11-04 12:42:00,41.0,15.0,-100.00,NE,52,2.0,9.0,34,0.00,,,0.00,499.000000,,2013-11-04 17:42:00,
2013-11-04 12:53:00,41.0,15.0,-100.00,NE,52,2.0,9.0,34,0.00,,,0.00,499.000000,,2013-11-04 17:53:00,
2013-11-04 13:01:00,42.0,15.0,-100.00,ENE,61,2.0,10.0,33,0.00,,,0.00,450.000000,,2013-11-04 18:01:00,
2013-11-04 13:42:00,42.0,15.0,-100.00,ENE,61,2.0,10.0,33,0.00,,,0.00,450.000000,,2013-11-04 18:42:00,
2013-11-04 13:52:00,42.0,15.0,-100.00,ENE,61,2.0,10.0,33,0.00,,,0.00,450.000000,,2013-11-04 18:52:00,
2013-11-04 14:01:00,42.0,15.0,-100.00,NNE,30,3.0,8.0,33,0.00,,,0.00,418.000000,,2013-11-04 19:01:00,
2013-11-04 14:42:00,42.0,15.0,-100.00,NNE,30,3.0,8.0,33,0.00,,,0.00,418.000000,,2013-11-04 19:42:00,
2013-11-04 14:52:00,42.0,15.0,-100.00,NNE,30,3.0,8.0,33,0.00,,,0.00,418.000000,,2013-11-04 19:52:00,
2013-11-04 15:01:00,38.0,14.0,-100.00,NE,47,2.0,7.0,37,0.00,,,0.00,150.000000,,2013-11-04 20:01:00,
2013-11-04 15:42:00,38.0,14.0,-100.00,NE,47,2.0,7.0,37,0.00,,,0.00,150.000000,,2013-11-04 20:42:00,
2013-11-04 15:52:00,38.0,14.0,-100.00,NE,47,2.0,7.0,37,0.00,,,0.00,150.000000,,2013-11-04 20:52:00,
2013-11-04 16:01:00,35.0,15.0,-100.00,North,1,1.0,7.0,44,0.00,,,0.00,26.000000,,2013-11-04 21:01:00,
2013-11-04 16:22:00,35.0,15.0,-100.00,North,1,1.0,7.0,44,0.00,,,0.00,26.000000,,2013-11-04 21:22:00,
2013-11-04 16:34:00,35.0,15.0,-100.00,North,1,1.0,7.0,44,0.00,,,0.00,26.000000,,2013-11-04 21:34:00,
2013-11-04 16:45:00,35.0,15.0,-100.00,North,1,1.0,7.0,44,0.00,,,0.00,26.000000,,2013-11-04 21:45:00,
2013-11-04 16:54:00,35.0,15.0,-100.00,North,1,1.0,7.0,44,0.00,,,0.00,26.000000,,2013-11-04 21:54:00,
2013-11-04 17:01:00,30.0,17.0,-100.00,NE,41,0.0,4.0,59,0.00,,,0.00,7.000000,,2013-11-04 22:01:00,
2013-11-04 17:23:00,30.0,17.0,-100.00,NE,41,0.0,4.0,59,0.00,,,0.00,7.000000,,2013-11-04 22:23:00,
2013-11-04 17:33:00,30.0,17.0,-100.00,NE,41,0.0,4.0,59,0.00,,,0.00,7.000000,,2013-11-04 22:33:00,
2013-11-04 17:43:00,30.0,17.0,-100.00,NE,41,0.0,4.0,59,0.00,,,0.00,7.000000,,2013-11-04 22:43:00,
2013-11-04 17:53:00,30.0,17.0,-100.00,NE,41,0.0,4.0,59,0.00,,,0.00,7.000000,,2013-11-04 22:53:00,
2013-11-04 18:01:00,28.0,20.0,-100.00,NNE,23,0.0,2.0,71,0.00,,,0.00,0.000000,,2013-11-04 23:01:00,
2013-11-04 18:43:00,28.0,20.0,-100.00,NNE,23,0.0,2.0,71,0.00,,,0.00,0.000000,,2013-11-04 23:43:00,
2013-11-04 18:53:00,28.0,20.0,-100.00,NNE,23,0.0,2.0,71,0.00,,,0.00,0.000000,,2013-11-04 23:53:00,
2013-11-04 19:01:00,28.0,20.0,-100.00,NNE,25,0.0,4.0,70,0.00,,,0.00,0.000000,,2013-11-05 00:01:00,
2013-11-04 19:22:00,28.0,20.0,-100.00,NNE,25,0.0,4.0,70,0.00,,,0.00,0.000000,,2013-11-05 00:22:00,
2013-11-04 19:32:00,28.0,20.0,-100.00,NNE,25,0.0,4.0,70,0.00,,,0.00,0.000000,,2013-11-05 00:32:00,
2013-11-04 19:42:00,28.0,20.0,-100.00,NNE,25,0.0,4.0,70,0.00,,,0.00,0.000000,,2013-11-05 00:42:00,
2013-11-04 19:52:00,28.0,20.0,-100.00,NNE,25,0.0,4.0,70,0.00,,,0.00,0.000000,,2013-11-05 00:52:00,
2013-11-04 20:01:00,27.0,19.0,-100.00,NE,41,0.0,4.0,72,0.00,,,0.00,0.000000,,2013-11-05 01:01:00,
2013-11-04 20:42:00,27.0,19.0,-100.00,NE,41,0.0,4.0,72,0.00,,,0.00,0.000000,,2013-11-05 01:42:00,
2013-11-04 20:52:00,27.0,19.0,-100.00,NE,41,0.0,4.0,72,0.00,,,0.00,0.000000,,2013-11-05 01:52:00,
2013-11-04 21:01:00,26.0,19.0,-100.00,NNE,28,1.0,3.0,73,0.00,,,0.00,0.000000,,2013-11-05 02:01:00,
2013-11-04 21:42:00,26.0,19.0,-100.00,NNE,28,1.0,3.0,73,0.00,,,0.00,0.000000,,2013-11-05 02:42:00,
2013-11-04 21:52:00,26.0,19.0,-100.00,NNE,28,1.0,3.0,73,0.00,,,0.00,0.000000,,2013-11-05 02:52:00,
2013-11-04 22:01:00,26.0,18.0,-100.00,ENE,59,0.0,2.0,72,0.00,,,0.00,0.000000,,2013-11-05 03:01:00,
2013-11-04 22:44:00,26.0,18.0,-100.00,ENE,59,0.0,2.0,72,0.00,,,0.00,0.000000,,2013-11-05 03:44:00,
2013-11-04 22:54:00,26.0,18.0,-100.00,ENE,59,0.0,2.0,72,0.00,,,0.00,0.000000,,2013-11-05 03:54:00,
2013-11-04 23:01:00,28.0,19.0,-100.00,NNE,29,0.0,3.0,69,0.00,,,0.00,0.000000,,2013-11-05 04:01:00,
2013-11-04 23:44:00,28.0,19.0,-100.00,NNE,29,0.0,3.0,69,0.00,,,0.00,0.000000,,2013-11-05 04:44:00,
2013-11-04 23:53:00,28.0,19.0,-100.00,NNE,29,0.0,3.0,69,0.00,,,0.00,0.000000,,2013-11-05 04:53:00,